Overview Statistics Trail Chart Weather Telemetry Raw packets
 

This is the latest recevied weather packets stored in our database for station/object KN6CRX-10. If no packets are shown the sender has not sent any weather packets the latest 10 day(s).

<< 15 16 17 18 19 20 21 >>
Time Temp. Humidity Pressure Rain* Wind** Luminosity Snow
1788314440 21.67° C 48% 1014.8 hPa 0 mm - 3 W/m² -
1788314135 22.22° C 47% 1014.9 hPa 0 mm - 5 W/m² -
1788313831 22.22° C 46% 1014.8 hPa 0 mm - 7 W/m² -
1788313527 22.78° C 45% 1015.1 hPa 0 mm - 10 W/m² -
1788313222 22.78° C 44% 1015.2 hPa 0 mm - 15 W/m² -
1788312916 23.33° C 43% 1014.9 hPa 0 mm - 21 W/m² -
1788312612 23.89° C 42% 1015.2 hPa 0 mm - 25 W/m² -
1788312313 24.44° C 41% 1015.4 hPa 0 mm - 36 W/m² -
1788312008 24.44° C 41% 1015.4 hPa 0 mm - 45 W/m² -
1788311704 23.89° C 41% 1015.3 hPa 0 mm - 39 W/m² -
1788311403 23.89° C 40% 1015.3 hPa 0 mm - 41 W/m² -
1788311098 24.44° C 40% 1015.5 hPa 0 mm - 66 W/m² -
1788310797 23.89° C 41% 1015.5 hPa 0 mm - 53 W/m² -
1788310496 23.89° C 41% 1015.6 hPa 0 mm - 40 W/m² -
1788310193 23.89° C 40% 1015.4 hPa 0 mm - 42 W/m² -
1788309892 23.89° C 38% 1015.4 hPa 0 mm - 41 W/m² -
1788309587 23.89° C 37% 1015.4 hPa 0 mm - 42 W/m² -
1788309282 23.89° C 37% 1015.4 hPa 0 mm - 43 W/m² -
1788308977 23.89° C 38% 1015.5 hPa 0 mm - 42 W/m² -
1788308673 23.89° C 36% 1015.6 hPa 0 mm - 48 W/m² -
1788308372 24.44° C 34% 1015.6 hPa 0 mm - 49 W/m² -
1788308067 23.89° C 32% 1015.9 hPa 0 mm - 63 W/m² -
1788307762 23.33° C 39% 1015.6 hPa 0 mm - 59 W/m² -
1788307457 25° C 42% 1015.9 hPa 0 mm - 126 W/m² -
1788307152 23.89° C 34% 1016 hPa 0 mm - 219 W/m² -

* Rain latest hour (hover to see other rain measurements)
** Current wind speed in m/s (hover to see current wind gust speed)